[[[{"header":{"parameterUnit":"kt","parameterCategory":2,"dx":1,"dy":1,"la1":30.253999710083008,"la2":30.299108505249023,"lo1":-89.0895004272461,"lo2":-89.04439544677734,"nx":28,"ny":28,"refTime":"2022-10-31T21:00:00:Z","depth":0,"parameterNumber":1,"parameterNumberName":"U-component_of_WINDS"},"data":[-2.6131,-2.6267,-2.6297,-2.6467,-2.6523,-2.6645,-2.6699,-2.6772,-2.6837,-2.6988,-2.7081,-2.7126,-2.7206,-2.7325,-2.7428,-2.7446,-2.7489,-2.7515,-2.7532,-2.7385,-2.7367,-2.7349,-2.7318,-2.7523,-2.7523,-2.7681,-2.7682,-2.7683,-2.602,-2.6076,-2.6174,-2.629,-2.6375,-2.6367,-2.646,-2.6532,-2.6642,-2.6725,-2.6817,-2.6953,-2.7065,-2.7138,-2.7251,-2.7318,-2.7322,-2.7347,-2.7343,-2.7356,-2.7199,-2.7166,-2.7341,-2.7341,-2.7341,-2.7341,-2.7341,-2.7341,-2.5826,-2.5907,-2.5994,-2.6101,-2.6168,-2.6246,-2.6329,-2.6382,-2.648,-2.6601,-2.6618,-2.6745,-2.6834,-2.6987,-2.7046,-2.7147,-2.7125,-2.7163,-2.7172,-2.7181,-2.7187,-2.6957,-2.7167,-2.7167,-2.7167,-2.7166,-2.7166,0,-2.5694,-2.5713,-2.5809,-2.5915,-2.5995,-2.608,-2.6164,-2.6216,-2.6269,-2.6348,-2.6466,-2.6539,-2.6685,-2.6801,-2.6914,-2.6969,-2.6972,-2.6975,-2.7002,-2.6995,-2.6975,-2.6988,-2.6732,-2.697,-2.6968,-2.6967,-2.6966,-2.6965,-2.5501,-2.5592,-2.5697,-2.5761,-2.5814,-2.5917,-2.5985,-2.6024,-2.6095,-2.6205,-2.6276,-2.6391,-2.6486,-2.6672,-2.6736,-2.6846,-2.6848,-2.6936,-2.6865,-2.6855,-2.6852,-2.6846,-2.6856,-2.6949,-2.6951,-2.6953,-2.6954,0,-2.539,-2.5438,-2.5588,-2.5684,-2.5711,-2.5805,-2.5888,-2.5972,-2.6015,-2.6136,-2.6167,-2.6236,-2.6352,-2.6402,-2.6545,-2.6568,-2.6727,-2.6726,-2.6696,-2.6699,-2.6783,-2.6775,-2.7045,-2.7083,-2.687,-2.6872,-2.6874,0,-2.5246,-2.5363,-2.5428,-2.5513,-2.5645,-2.5682,-2.5812,-2.5862,-2.5939,-2.6035,-2.6044,-2.6135,-2.6184,-2.6283,-2.6317,-2.6455,-2.6482,-2.6508,-2.6516,-2.6509,-2.6505,-2.6549,-2.654,-2.6529,-2.6528,-2.6526,-2.6525,0,-2.5068,-2.524,-2.5378,-2.5425,-2.554,-2.5605,-2.5656,-2.5742,-2.5809,-2.5904,-2.5948,-2.6056,-2.6116,-2.6201,-2.6243,-2.6194,-2.6413,-2.6354,-2.6441,-2.644,-2.6488,-2.6485,-2.671,-2.6523,-2.6523,-2.6523,-2.6522,0,-2.4959,-2.5051,-2.5243,-2.5339,-2.5383,-2.5475,-2.5582,-2.5672,-2.5763,-2.5789,-2.5865,-2.5878,-2.6001,-2.5939,-2.6111,-2.6035,-2.6094,-2.613,-2.6137,-2.6153,-2.6082,-2.6205,-2.6412,-2.6436,-2.6165,-2.6162,-2.616,0,-2.4743,-2.4949,-2.4981,-2.5163,-2.5265,-2.5268,-2.5371,-2.545,-2.5494,-2.5589,-2.5638,-2.5746,-2.571,-2.5752,-2.583,-2.5886,-2.5986,-2.5874,-2.6014,-2.6019,-2.5991,-2.6182,-2.6201,-2.636,-2.6122,-2.6126,-2.6129,0,-2.4582,-2.4719,-2.4749,-2.4805,-2.4914,-2.5,-2.5117,-2.5232,-2.5293,-2.5381,-2.5482,-2.5635,-2.5614,-2.5682,-2.5705,-2.5784,-2.592,-2.5752,-2.5755,-2.5782,-2.6107,-2.6125,-2.6151,-2.5918,-2.5922,-2.5926,-2.6099,0,-2.4408,-2.4517,-2.46,-2.4722,-2.4796,-2.4913,-2.4964,-2.5035,-2.5048,-2.5092,-2.5241,-2.532,-2.5439,-2.5482,-2.5497,-2.5661,-2.5642,-2.5619,-2.5564,-2.5688,-2.5747,-2.5771,-2.5472,-2.5471,-2.547,-2.5469,0,0,-2.4191,-2.4348,-2.438,-2.4494,-2.4558,-2.456,-2.468,-2.4743,-2.4872,-2.4917,-2.4886,-2.5114,-2.5181,-2.5356,-2.5399,-2.5447,-2.5482,-2.5437,-2.5628,-2.5646,-2.5662,-2.5724,-2.5748,-2.5467,-2.5466,-2.5466,-2.5466,0,-2.4138,-2.4202,-2.4319,-2.4385,-2.4484,-2.4525,-2.4553,-2.4652,-2.4686,-2.4831,-2.4833,-2.4929,-2.511,-2.5181,-2.5241,-2.5416,-2.5413,-2.5448,-2.5525,-2.5615,-2.5634,-2.5651,-2.5715,-2.5738,-2.5463,-2.5463,-2.5463,0,-2.399,-2.4061,-2.4123,-2.4268,-2.4333,-2.4439,-2.4392,-2.4505,-2.4585,-2.4584,-2.4728,-2.478,-2.488,-2.5038,-2.5111,-2.5086,-2.5348,-2.5275,-2.5283,-2.5293,-2.5383,-2.5406,-2.5426,-2.516,-2.5159,-2.5157,0,0,-2.3937,-2.4038,-2.4128,-2.426,-2.4301,-2.4363,-2.4424,-2.4444,-2.4531,-2.4566,-2.4633,-2.4719,-2.4825,-2.4894,-2.4996,-2.5163,-2.5188,-2.5235,-2.5249,-2.5261,-2.5277,-2.537,-2.5393,-2.5153,-2.5153,-2.5152,0,0,-2.3914,-2.4022,-2.4019,-2.4178,-2.426,-2.4359,-2.4439,-2.4439,-2.4535,-2.4528,-2.4569,-2.4594,-2.4743,-2.4794,-2.4723,-2.4978,-2.4922,-2.4941,-2.4939,-2.4958,-2.4973,-2.4958,-2.4689,0,0,0,0,0,-2.3886,-2.4008,-2.4004,-2.4038,-2.4223,-2.436,-2.4385,-2.442,-2.4379,-2.4441,-2.4497,-2.449,-2.4764,-2.4702,-2.4737,-2.4817,-2.509,-2.5101,-2.5112,-2.515,-2.5169,-2.5185,0,0,0,0,0,0,-2.3899,-2.3941,-2.4001,-2.4104,-2.4146,-2.4356,-2.4295,-2.4308,-2.4373,-2.4369,-2.4479,-2.4493,-2.4527,-2.4687,-2.4718,-2.4793,-2.4679,-2.5095,-2.5104,-2.5112,-2.5156,-2.5172,-2.5185,0,0,0,0,0,-2.391,-2.3944,-2.423,-2.4103,-2.414,-2.4215,-2.4291,-2.4301,-2.4352,-2.4439,-2.4453,-2.4373,-2.4528,-2.4557,-2.4705,-2.4778,-2.4658,-2.4669,-2.5101,-2.5108,-2.5115,-2.5164,0,0,0,0,0,0,-2.3919,-2.3956,-2.4238,-2.425,-2.4059,-2.4204,-2.4228,-2.4295,-2.4419,-2.4434,-2.4335,-2.433,-2.4531,-2.4552,-2.4574,-2.4771,-2.4641,-2.4652,-2.466,-2.5106,-2.5112,-2.5117,0,0,0,0,0,0,-2.3938,-2.3966,-2.4244,-2.4187,-2.4193,-2.4194,-2.4215,-2.4347,-2.442,-2.4307,-2.4307,-2.4331,-2.4499,-2.455,-2.4567,-2.4771,-2.4628,-2.4639,-2.4646,-2.4651,-2.5111,-2.5116,0,0,0,0,0,0,-2.395,-2.3975,-2.4184,-2.4189,-2.4194,-2.4337,-2.4311,-2.4499,-2.4368,-2.4302,-2.4358,-2.4353,-2.4497,-2.4514,-2.4562,-2.4759,-2.4768,-2.4628,-2.4636,-2.4641,-2.4644,0,0,0,0,0,0,0,-2.3961,-2.3789,-2.4164,-2.419,-2.4195,-2.4366,-2.4369,-2.4373,-2.4367,-2.4363,-2.4359,-2.4355,-2.4565,-2.4577,-2.4589,-2.4749,0,0,-2.4627,-2.4632,0,0,0,0,0,0,0,0,-2.3779,-2.3786,-2.4164,-2.4167,-2.4169,-2.4366,-2.4369,-2.4372,-2.4367,-2.4363,-2.436,-2.4357,-2.4568,-2.4578,-2.4588,0,0,0,0,0,0,0,0,0,0,0,0,0,0,0,-2.4164,-2.4167,0,-2.4367,-2.4369,-2.4371,-2.4366,-2.4363,-2.4361,-2.4358,-2.4571,-2.4579,-2.4587,0,0,0,0,0,0,0,0,0,0,0,0,0,0,0,0,0,0,0,0,0,0,0,0,0,0,0,0,0,0,0,0,0,0,0,0,0,0,0,0,0,0,0,0,0,0,0,0,0,0,0,0,0,0,0,0,0,0,0,0,0,0,0,0,0,0,0,0,0]}],[{"header":{"parameterUnit":"kt","parameterCategory":2,"dx":1,"dy":1,"la1":30.253999710083008,"la2":30.299108505249023,"lo1":-89.0895004272461,"lo2":-89.04439544677734,"nx":28,"ny":28,"refTime":"2022-10-31T21:00:00:Z","depth":0,"parameterNumber":2,"parameterNumberName":"V-component_of_WINDS"},"data":[-6.4454,-6.4582,-6.4597,-6.4749,-6.4788,-6.4894,-6.4936,-6.4991,-6.5039,-6.5164,-6.5238,-6.5264,-6.5315,-6.5404,-6.5483,-6.5492,-6.5525,-6.556,-6.5564,-6.5398,-6.5376,-6.5355,-6.5327,-6.5567,-6.5567,-6.5735,-6.5737,-6.5738,-6.4331,-6.4371,-6.4456,-6.4549,-6.4621,-6.4597,-6.4667,-6.4729,-6.4823,-6.4882,-6.4956,-6.5066,-6.5154,-6.5193,-6.5279,-6.5337,-6.5329,-6.5359,-6.5355,-6.5364,-6.5186,-6.5156,-6.5364,-6.5364,-6.5364,-6.5364,-6.5364,-6.5364,-6.4111,-6.4187,-6.4252,-6.4344,-6.4394,-6.4455,-6.4529,-6.4561,-6.4642,-6.4736,-6.4736,-6.4841,-6.4901,-6.5011,-6.505,-6.5131,-6.51,-6.5136,-6.5146,-6.5155,-6.5164,-6.492,-6.5146,-6.5145,-6.5145,-6.5144,-6.5144,0,-6.3954,-6.3962,-6.4045,-6.4132,-6.42,-6.4268,-6.4332,-6.4378,-6.4396,-6.4462,-6.4559,-6.4616,-6.4728,-6.4819,-6.4902,-6.4935,-6.4915,-6.4914,-6.4939,-6.4942,-6.4934,-6.494,-6.4651,-6.4907,-6.4905,-6.4904,-6.4903,-6.4902,-6.3734,-6.3821,-6.3896,-6.3951,-6.3991,-6.408,-6.4135,-6.4145,-6.4203,-6.4282,-6.4347,-6.4439,-6.4513,-6.4662,-6.4694,-6.4777,-6.4768,-6.4864,-6.478,-6.4779,-6.477,-6.4765,-6.4774,-6.4881,-6.4883,-6.4886,-6.4887,0,-6.3609,-6.3633,-6.3771,-6.3836,-6.3855,-6.3944,-6.3999,-6.4073,-6.4094,-6.42,-6.4225,-6.4257,-6.435,-6.4367,-6.4476,-6.4481,-6.4626,-6.4614,-6.4606,-6.4604,-6.4693,-6.4685,-6.4977,-6.5016,-6.4766,-6.4769,-6.4771,0,-6.3431,-6.3543,-6.3572,-6.3652,-6.3776,-6.3784,-6.3907,-6.3937,-6.399,-6.4073,-6.4053,-6.4131,-6.414,-6.422,-6.4228,-6.4349,-6.4369,-6.438,-6.4381,-6.4383,-6.4382,-6.4413,-6.4402,-6.4379,-6.4378,-6.4376,-6.4375,0,-6.3232,-6.338,-6.3508,-6.3545,-6.3625,-6.3684,-6.372,-6.3779,-6.3832,-6.3904,-6.3939,-6.4022,-6.4067,-6.413,-6.4141,-6.4083,-6.4289,-6.4211,-6.43,-6.43,-6.4345,-6.4343,-6.4597,-6.4373,-6.4373,-6.4372,-6.4372,0,-6.3092,-6.3168,-6.335,-6.3416,-6.3454,-6.3538,-6.3622,-6.3697,-6.376,-6.3772,-6.3828,-6.3817,-6.3924,-6.3846,-6.3992,-6.3914,-6.396,-6.398,-6.3987,-6.3998,-6.3911,-6.4053,-6.4293,-6.4319,-6.4007,-6.4004,-6.4001,0,-6.2859,-6.305,-6.3058,-6.323,-6.3321,-6.3294,-6.3386,-6.3443,-6.3467,-6.3545,-6.3569,-6.3657,-6.3603,-6.3633,-6.3703,-6.3732,-6.3833,-6.3718,-6.3829,-6.3832,-6.3814,-6.4035,-6.4067,-6.4238,-6.3963,-6.3967,-6.397,0,-6.2682,-6.2779,-6.2809,-6.2852,-6.293,-6.3005,-6.3111,-6.3202,-6.3254,-6.3319,-6.3408,-6.3532,-6.3496,-6.3545,-6.3544,-6.3617,-6.3764,-6.3568,-6.3569,-6.3603,-6.3944,-6.3975,-6.4003,-6.3747,-6.3752,-6.3756,-6.3939,0,-6.2466,-6.2564,-6.2646,-6.2741,-6.2802,-6.291,-6.2931,-6.2991,-6.2985,-6.3007,-6.3137,-6.3187,-6.3277,-6.3313,-6.3308,-6.3468,-6.3444,-6.3404,-6.333,-6.3474,-6.3535,-6.356,-6.3238,-6.3236,-6.3234,-6.3232,0,0,-6.2237,-6.2378,-6.2384,-6.2488,-6.254,-6.2511,-6.2625,-6.2671,-6.2765,-6.28,-6.2759,-6.2942,-6.2984,-6.3139,-6.3186,-6.3222,-6.3252,-6.3201,-6.3405,-6.3425,-6.3442,-6.3507,-6.3533,-6.3229,-6.3229,-6.3228,-6.3227,0,-6.2163,-6.221,-6.2324,-6.2373,-6.2445,-6.2463,-6.2491,-6.2556,-6.2576,-6.2703,-6.2676,-6.2756,-6.2901,-6.2949,-6.2993,-6.3182,-6.3156,-6.3208,-6.3304,-6.3387,-6.3409,-6.3428,-6.3496,-6.352,-6.3223,-6.3223,-6.3224,0,-6.1992,-6.2042,-6.2099,-6.2216,-6.2263,-6.2356,-6.2283,-6.2384,-6.2453,-6.2413,-6.254,-6.257,-6.2636,-6.278,-6.2845,-6.2809,-6.3068,-6.2989,-6.3001,-6.3009,-6.3089,-6.3115,-6.3138,-6.2835,-6.2833,-6.2832,0,0,-6.1925,-6.2016,-6.2072,-6.2202,-6.2233,-6.2262,-6.2313,-6.2312,-6.2374,-6.2398,-6.2437,-6.2496,-6.258,-6.2635,-6.2715,-6.2871,-6.2885,-6.2941,-6.2959,-6.2974,-6.299,-6.3075,-6.31,-6.2827,-6.2827,-6.2826,0,0,-6.1892,-6.1963,-6.1947,-6.21,-6.2161,-6.2223,-6.23,-6.2281,-6.2356,-6.2345,-6.2347,-6.2363,-6.2498,-6.2528,-6.2454,-6.2689,-6.2615,-6.2633,-6.2665,-6.2688,-6.2706,-6.2696,-6.2386,0,0,0,0,0,-6.1828,-6.1955,-6.1939,-6.1968,-6.2114,-6.2231,-6.225,-6.2256,-6.2204,-6.2265,-6.2294,-6.2263,-6.2489,-6.2424,-6.2451,-6.2533,-6.2758,-6.277,-6.2781,-6.2859,-6.2883,-6.2904,0,0,0,0,0,0,-6.1839,-6.1874,-6.1936,-6.2003,-6.2036,-6.2227,-6.214,-6.2145,-6.2197,-6.219,-6.2258,-6.2265,-6.2271,-6.241,-6.2434,-6.2513,-6.2378,-6.2762,-6.2773,-6.2782,-6.2867,-6.2887,-6.2904,0,0,0,0,0,-6.1848,-6.1876,-6.211,-6.2002,-6.203,-6.2069,-6.2135,-6.2139,-6.2179,-6.2224,-6.223,-6.2179,-6.2273,-6.2294,-6.2424,-6.2501,-6.2361,-6.237,-6.2769,-6.2777,-6.2785,-6.2877,0,0,0,0,0,0,-6.1855,-6.188,-6.2116,-6.2125,-6.1954,-6.2058,-6.2074,-6.2134,-6.221,-6.2217,-6.2144,-6.2137,-6.2276,-6.2291,-6.2308,-6.2497,-6.2347,-6.2356,-6.2362,-6.2775,-6.2782,-6.2788,0,0,0,0,0,0,-6.1864,-6.1887,-6.212,-6.2061,-6.2063,-6.2048,-6.2063,-6.2174,-6.2211,-6.2126,-6.2122,-6.214,-6.225,-6.2291,-6.2303,-6.2476,-6.2336,-6.2345,-6.2351,-6.2355,-6.2781,-6.2786,0,0,0,0,0,0,-6.1874,-6.1894,-6.2058,-6.206,-6.2061,-6.2161,-6.2146,-6.2295,-6.2162,-6.2123,-6.215,-6.2145,-6.225,-6.2263,-6.23,-6.2468,-6.2474,-6.2336,-6.2342,-6.2347,-6.235,0,0,0,0,0,0,0,-6.1882,-6.1749,-6.2064,-6.2059,-6.206,-6.2207,-6.2209,-6.2211,-6.2161,-6.2156,-6.2151,-6.2147,-6.2285,-6.2295,-6.2305,-6.2462,0,0,-6.2335,-6.234,0,0,0,0,0,0,0,0,-6.1741,-6.1747,-6.2064,-6.2066,-6.2068,-6.2207,-6.2209,-6.2211,-6.216,-6.2156,-6.2152,-6.2149,-6.2288,-6.2296,-6.2304,0,0,0,0,0,0,0,0,0,0,0,0,0,0,0,-6.2064,-6.2066,0,-6.2207,-6.2209,-6.221,-6.216,-6.2156,-6.2153,-6.215,-6.229,-6.2297,-6.2303,0,0,0,0,0,0,0,0,0,0,0,0,0,0,0,0,0,0,0,0,0,0,0,0,0,0,0,0,0,0,0,0,0,0,0,0,0,0,0,0,0,0,0,0,0,0,0,0,0,0,0,0,0,0,0,0,0,0,0,0,0,0,0,0,0,0,0,0,0]}]]]